Regional Weather Roundup
Issued by NWS

Home | Current Version | Previous Version | Text Only | Print | Product List | Glossary Off
Versions: 1 2 3 4 5 6 7 8 9 10 11 12 13 14 15 16 17 18 19 20 21 22 23 24 25 26 27 28 29 30 31 32 33 34 35 36 37 38 39 40 41 42 43 44 45 46 47 48 49 50

816
ASUS45 KSLC 222210
RWRUT

UTAH REGIONAL WEATHER ROUNDUP
NATIONAL WEATHER SERVICE SALT LAKE CITY UT
300 PM MST SUN JAN 22 2017

UTZ001>011-023>025-222300-

NORTHERN UTAH

CITY           SKY/WX    TMP DP  RH WIND       PRES   REMARKS
BRIGHAM CITY     N/A     37  21  53 CALM      29.84F
HILL AFB       LGT SNOW  34  26  71 S24G39    29.82S VSB 3/4 WCI  21
LOGAN          CLOUDY    29  23  78 NE6       29.82F WCI  23
OGDEN          CLOUDY    36  25  64 S22G28    29.82S WCI  25
SALT LAKE CITY CLOUDY    37  26  64 S15G26    29.82S WCI  28
TOOELE VALLEY  CLOUDY    37  32  81 S23G30    29.81F WCI  26
WENDOVER       CLOUDY    28  27  93 S3        29.80F
HEBER CITY     CLOUDY    34  19  55 S7        29.86R WCI  28
WEST JORDAN    CLOUDY    34  32  92 S22G28    29.83F WCI  22

$$

UTZ011>015-024>027-222300-

CENTRAL/NORTHEAST UTAH

CITY           SKY/WX    TMP DP  RH WIND       PRES   REMARKS
PROVO AIRPORT  LGT SNOW  34  28  80 S10       29.89S WCI  26
MOAB/CANYONLAN CLOUDY    39  26  59 S12       29.99F WCI  32
DELTA          CLOUDY    34  30  86 SE6       29.85R WCI  29
PRICE          LGT SNOW  25  22  88 CALM      29.97S VSB 1
RICHFIELD      CLOUDY    36  21  55 CALM      29.88S
ROOSEVELT      CLOUDY    28  21  74 CALM      29.99F
VERNAL         CLOUDY    26  18  71 CALM      29.96F

$$

UTZ013>016-019>022-027-222300-

SOUTHERN UTAH

CITY           SKY/WX    TMP DP  RH WIND       PRES   REMARKS
BRYCE CANYON   SNOW      25  23  92 SE17      29.97S VSB 1/4 WCI  12
CEDAR CITY     CLOUDY    38  25  59 S15G35    29.82F WCI  29
MILFORD        CLOUDY    36  31  82 SW20G28   29.86R WCI  25
ST GEORGE      CLOUDY    43  36  75 E12       30.04F
HANKSVILLE     CLOUDY    39  27  60 MISG      30.00R
KANAB          FOG       34  34 100 CALM      30.08F VSB 3/4
BLANDING       CLOUDY    29  24  82 N5        30.15S WCI  24

$$

REGIONAL REPORTS     COLORADO/ARIZONA

CITY           SKY/WX    TMP DP  RH WIND       PRES   REMARKS
CRAIG, CO      CLOUDY    26  16  65 CALM      29.95F
GRAND JUNCTION CLOUDY    39  23  52 SE16      29.98F WCI  30
RIFLE, CO      CLOUDY    35  20  54 VRB3      30.00F
MONTROSE, CO   CLOUDY    37  18  46 NE6       30.03F WCI  32
CORTEZ, CO     CLOUDY    32  24  72 CALM      30.08S
COLORADO CITY  LGT SNOW  34  34 100 E12       30.04F VSB 1   WCI  25
PAGE, AZ       CLOUDY    42  27  55 S8        30.04S
GRAND CANYON   SNOW      30  28  92 S14G24    30.05F VSB 1/4 WCI  19
KINGMAN, AZ    LGT RAIN  45  31  58 S18G25    30.03F
FLAGSTAFF, AZ  LGT SNOW  28  27  96 SW14      30.07F VSB 3/4 WCI  17

$$

REGIONAL REPORTS    NEVADA/IDAHO/WYOMING

CITY           SKY/WX    TMP DP  RH WIND       PRES   REMARKS
LAS VEGAS, NV  LGT RAIN  45  40  82 S6        29.95F
ELY, NY        CLOUDY    32  25  75 S28G40    29.73F WCI  18
ELKO, NV       LGT SNOW  35  29  78 S14G31    29.66F WCI  26
POCATELLO, ID  CLOUDY    34  24  67 S21       29.77S WCI  22
BURLEY, ID     FLURRIES  35  28  75 S14       29.67F WCI  26
FORT BRIDGER,  CLOUDY    18  11  72 N3        29.84S
EVANSTON, WY   CLOUDY    27  13  55 E3        29.80R
ROCK SPRINGS,  CLOUDY    26  15  63 S8        29.83F WCI  18
KEMMERER, WY     N/A     25  12  58 CALM      29.82F

$$




USA.gov is the U.S. government's official web portal to all federal, state and local government web resources and services.